Tracking 19254 objects as of 24-Oct-2018
HD Live streaming from Space Station
objects crossing your sky now

DTUSAT-2

Track DTUSAT-2 now!
10-day predictions
DTUSAT-2 is classified as:


NORAD ID: 40030
Int'l Code: 2014-033W
Perigee: 600.9 km
Apogee: 619.3 km
Inclination: 97.9 °
Period: 96.7 minutes
Semi major axis: 6981 km
RCS: Unknown
Launch date: June 19, 2014
Source: Denmark (DEN)
Launch site: Orenburg, Russia (OREN)

Uplink (MHz): 1268.900
Downlink (MHz): 2401.835
Beacon (MHz): 2401.860
Mode: 9k6CPFSK/1k2 19k2 38k4MSK CW
Call sign: OZ2DTU
Status: Active

aabbcc
Your satellite tracking list
Your tracking list is empty




NASA's NSSDC Master Catalog

Two Line Element Set (TLE):
1 40030U 14033W   18296.31852147 +.00000275 +00000-0 +35648-4 0  9999
2 40030 097.8949 209.9473 0013149 115.5697 244.6880 14.88398689235287
Source of the keplerian elements: AMSAT